Temperature
25 25 24 25 26 26 26 25 25 25 25 24 24 23 24 23 23 23 22 22 21 21 20 20 19 19 19 18 18 18 17 17 17 16 16 16 16 16 15 15 15 15 15 15
25 24 26 27 27 26 26 25 25 25 26 25 24 24 24 24 23 23 22 22 22 21 20 20 19 19 19 18 18 18 17 17 17 16 16 16 16 16 15 15 15 15 15 15
25 26 27 26 26 26 26 25 25 25 25 25 24 23 24 24 23 23 22 22 22 21 20 20 19 19 18 18 18 18 18 17 17 16 16 16 16 16 15 15 15 15 15 15
26 26 26 26 26 26 25 26 26 25 24 24 24 22 23 24 23 23 23 22 22 21 21 20 19 19 18 18 18 18 18 17 17 16 16 16 16 16 16 15 15 15 15 15
25 26 26 25 26 26 25 26 26 25 24 24 25 24 23 24 23 23 23 22 22 21 21 20 19 19 18 18 18 18 17 17 17 16 16 16 16 16 16 16 15 15 15 15
26 26 26 26 26 26 26 25 25 25 24 23 24 24 22 23 23 23 23 22 22 21 21 20 19 19 18 18 18 18 17 17 17 17 16 16 16 16 16 16 15 15 15 15
25 26 26 26 25 25 25 24 22 22 22 23 25 24 23 24 24 24 23 23 22 21 20 20 19 19 18 18 18 17 17 17 17 16 16 16 16 16 16 16 15 15 15 15
24 24 25 26 25 25 25 24 22 22 22 24 25 24 23 24 24 24 23 22 22 21 20 20 19 18 18 18 17 17 17 17 17 16 16 16 16 16 16 16 15 15 15 15
24 24 26 26 26 25 24 24 24 24 24 24 24 23 23 24 23 23 23 22 21 21 20 19 19 18 18 17 17 17 17 17 17 16 16 16 16 16 16 16 15 15 15 15
25 24 25 25 25 25 25 25 24 23 22 22 23 23 22 23 23 23 22 22 21 20 20 19 19 18 18 17 17 17 17 17 16 16 16 16 16 16 16 15 15 15 15 15
24 23 24 24 24 24 24 24 24 24 24 23 22 22 24 23 23 23 22 22 21 21 20 19 19 18 18 17 17 17 17 17 16 16 16 16 16 16 16 15 15 15 15 15
24 23 23 24 25 25 24 24 24 23 23 23 22 22 24 24 24 23 22 22 21 20 20 19 19 18 18 17 17 17 17 16 16 16 16 16 16 16 16 15 15 15 15 15
22 22 22 22 23 24 24 24 24 24 23 23 22 22 24 23 23 23 22 21 21 20 20 19 19 18 18 17 17 17 17 16 16 16 16 16 16 16 16 15 15 15 15 15
21 22 22 21 22 23 23 24 24 23 22 22 23 22 23 22 22 22 22 21 21 20 19 19 18 18 17 17 17 17 17 16 16 16 16 16 16 16 15 15 15 15 15 15
22 21 22 23 23 23 23 23 23 23 23 22 22 22 23 22 22 22 21 21 20 20 19 19 18 18 17 17 17 17 16 16 16 16 16 16 15 15 15 15 15 15 15 15
22 21 22 22 23 23 22 23 23 23 23 23 22 22 23 23 22 21 21 20 20 19 19 18 18 18 17 17 17 16 16 16 16 16 16 15 15 15 15 15 15 15 15 15
21 21 20 21 22 22 21 22 22 23 23 23 22 22 22 22 21 21 20 20 19 19 19 18 18 17 17 17 17 16 16 16 16 15 15 15 15 15 15 15 15 14 14 15
20 20 20 20 21 20 21 23 23 22 22 22 22 22 22 21 21 20 19 19 18 18 18 18 17 17 17 17 16 16 16 16 16 15 15 15 15 15 14 14 14 14 14 14
21 20 19 20 19 20 21 22 22 22 21 22 22 21 21 21 20 20 19 18 18 18 17 17 17 17 17 16 16 16 16 15 15 15 15 15 14 14 14 14 14 14 14 14
20 20 19 19 19 19 20 22 22 22 20 21 21 21 20 20 19 19 18 18 18 17 17 17 16 16 16 16 16 16 15 15 15 15 15 14 14 14 14 14 14 14 13 13
19 19 18 18 19 19 20 21 21 20 20 21 20 20 20 19 19 18 18 17 17 17 17 16 16 16 16 15 15 15 15 15 15 14 14 14 14 14 14 13 13 13 13 13
18 18 18 18 18 18 20 20 20 20 20 20 19 19 18 18 18 18 17 17 17 17 16 16 16 15 15 15 15 15 15 15 14 14 14 14 14 13 13 13 13 13 13 12
19 19 18 18 18 19 19 19 19 19 19 18 18 18 17 17 17 17 16 16 16 16 16 16 15 15 15 15 15 15 14 14 14 14 14 13 13 13 13 13 13 12 12 12
18 19 18 18 18 18 18 18 17 18 18 17 17 17 17 16 16 16 16 15 15 15 15 15 15 15 14 14 14 14 14 14 13 13 13 13 13 12 12 12 12 12 12 11
16 17 17 17 17 17 17 17 16 16 16 16 16 16 16 16 15 15 15 15 14 15 15 15 14 14 14 14 14 14 13 13 13 13 12 12 12 12 12 12 12 12 12 11
16 16 15 16 17 16 16 16 16 15 15 15 16 15 15 15 15 14 14 14 14 14 14 14 14 14 14 13 13 13 13 13 12 12 12 12 12 12 12 11 11 11 11 11
Wind_Speed
8 7 7 7 7 7 4 3 1 2 6 4 3 4 4 7 6 5 5 5 6 6 7 6 5 5 5 4 4 5 5 4 3 2 2 2 2 2 2 2 4 4 5 6
6 8 7 5 5 6 5 4 2 3 5 3 3 4 5 7 6 5 4 5 6 7 8 7 6 6 4 5 4 5 4 4 4 3 2 2 3 2 3 2 2 3 4 5
8 4 5 6 6 7 6 5 3 2 2 5 5 4 5 7 6 6 5 4 5 6 8 8 7 6 5 5 4 4 4 4 5 4 2 2 2 2 2 2 2 3 5 5
7 6 6 6 6 7 5 3 4 5 5 4 5 2 5 7 7 7 6 4 5 5 7 7 7 7 6 5 4 4 4 4 4 4 3 2 2 2 2 2 2 2 4 4
6 5 7 7 5 6 5 4 6 8 7 7 6 4 3 7 6 7 7 6 6 5 6 7 7 7 6 6 5 3 4 4 4 4 4 2 2 1 2 3 3 2 3 3
8 6 6 6 5 5 4 7 9 9 6 7 7 4 2 3 4 6 6 7 7 6 7 7 7 6 6 6 5 4 5 4 4 3 4 3 3 2 3 3 2 2 2 2
10 10 8 6 7 6 7 5 4 5 5 5 4 3 3 4 5 5 6 7 6 7 7 7 8 7 6 6 6 5 5 4 3 3 3 4 3 3 3 3 2 2 2 2
9 8 8 7 7 6 7 7 5 4 3 2 4 3 5 6 6 6 7 7 6 7 7 7 7 7 6 6 5 5 5 5 3 3 3 3 3 2 2 2 2 2 2 3
6 5 6 7 6 7 6 7 8 7 8 5 2 4 6 7 7 6 7 7 6 6 7 7 7 7 7 6 5 5 5 5 4 3 3 3 3 3 2 2 3 2 2 2
7 6 6 6 6 9 9 7 5 5 4 4 2 3 4 8 7 7 7 7 6 6 6 7 7 7 7 6 6 5 5 5 4 3 3 3 3 3 2 2 3 3 3 3
9 7 6 6 8 9 8 8 6 5 5 4 3 0 3 7 7 7 6 6 6 6 6 7 7 6 6 6 5 5 4 4 3 3 3 4 4 3 3 2 2 3 3 3
7 6 7 8 5 5 7 7 7 5 5 5 3 1 4 6 6 6 6 6 6 6 5 6 7 6 6 6 5 5 5 5 4 3 3 4 4 4 4 4 3 3 3 2
5 6 6 4 4 6 8 9 8 6 6 6 4 2 4 4 5 6 5 5 6 6 5 5 5 6 5 5 5 4 4 4 4 3 3 3 4 4 3 3 3 3 3 3
5 8 8 7 5 4 7 8 8 7 6 7 5 3 5 5 5 5 6 5 5 6 6 5 5 5 4 4 4 3 3 3 4 4 3 3 3 3 3 2 2 2 2 2
5 9 10 8 8 9 9 9 9 9 9 8 5 3 2 3 4 5 5 5 5 5 6 6 5 5 5 5 4 4 3 3 4 4 3 3 3 3 3 3 2 2 1 2
6 8 10 10 10 9 10 10 11 10 9 8 6 5 2 1 3 3 4 5 5 5 5 5 5 5 5 4 5 4 4 3 3 4 4 3 3 3 3 3 3 2 1 2
6 8 9 10 9 9 10 10 10 9 7 8 7 4 1 2 2 3 3 4 4 3 3 4 4 5 4 4 4 4 4 3 3 3 3 3 3 3 3 3 3 2 2 2
10 10 7 8 8 10 4 1 2 3 4 2 1 1 2 1 1 3 3 3 3 3 2 2 2 3 4 4 4 4 4 4 4 4 4 4 3 4 3 3 3 2 2 2
9 9 7 6 8 7 5 3 3 3 3 2 2 1 2 2 2 2 3 3 2 3 3 2 2 2 2 3 4 4 4 4 4 3 3 3 4 4 4 4 3 2 2 2
9 9 8 8 8 6 2 1 1 3 4 1 1 1 2 2 2 1 1 2 2 2 2 2 2 2 2 2 3 4 4 3 3 3 3 3 3 4 4 3 3 2 2 2
7 8 10 11 9 5 0 0 0 3 2 2 2 1 1 1 0 1 2 1 2 2 3 3 3 2 2 3 3 3 3 3 3 3 3 3 3 3 3 3 3 2 2 2
6 5 8 8 9 5 1 0 1 1 2 2 2 2 1 1 2 1 1 1 1 2 3 4 3 3 2 3 3 2 2 2 3 3 3 3 3 2 3 3 3 3 3 2
5 4 3 3 2 2 2 3 3 3 2 2 2 2 1 1 1 1 0 0 1 2 3 4 4 4 3 3 3 3 3 3 3 3 3 3 3 2 3 3 3 2 2 2
5 5 6 5 2 2 3 4 4 4 3 2 2 1 2 1 1 1 1 1 1 1 2 3 4 4 3 3 3 3 3 3 3 3 3 3 3 2 2 2 2 2 2 2
7 6 7 7 4 3 3 4 5 5 4 4 3 2 2 2 2 2 2 2 1 1 2 3 4 4 4 3 3 4 4 4 3 3 3 3 3 3 2 1 1 2 2 2
7 7 7 7 6 6 5 5 6 5 6 6 4 3 3 3 3 3 3 2 2 2 2 3 4 4 4 4 4 3 4 5 4 3 3 3 2 2 2 2 1 2 0 2
Wind_Direction
210 223 231 226 231 257 270 274 266 134 143 166 191 193 188 167 172 181 173 169 162 152 143 133 134 127 124 115 111 116 119 114 102 94 92 94 87 74 66 45 39 48 69 82
215 225 236 244 250 255 252 251 223 163 157 185 210 215 190 171 171 172 177 167 156 150 143 138 142 139 141 133 134 132 122 111 99 82 83 108 103 99 94 65 45 59 74 83
228 219 221 237 245 252 245 246 246 220 197 222 228 219 184 167 163 160 167 160 157 155 149 150 150 143 144 140 139 132 126 118 111 111 90 81 88 78 92 83 53 55 74 81
237 237 249 242 244 259 256 253 249 249 247 239 223 228 177 168 164 163 165 162 157 152 149 150 148 146 147 141 136 135 130 125 124 127 113 112 120 111 120 120 119 95 92 92
238 224 242 250 243 258 273 274 255 248 258 266 239 241 175 165 163 164 165 166 157 154 152 151 149 144 144 137 133 134 127 118 116 111 112 111 105 117 113 107 107 101 95 104
249 243 243 253 261 254 261 265 259 245 250 255 234 228 171 166 156 152 155 157 156 157 149 146 138 130 128 126 130 130 119 117 115 125 145 156 139 134 119 115 117 117 110 98
234 231 228 231 246 234 235 254 259 227 219 233 207 198 131 121 127 134 144 143 146 145 143 143 138 138 136 134 138 138 130 129 140 160 168 158 151 148 141 144 154 146 131 131
238 228 213 219 236 244 239 240 250 261 250 236 200 169 127 118 112 115 120 129 137 141 145 145 146 144 138 138 145 150 148 150 159 171 168 151 142 140 144 149 143 130 125 132
258 233 200 207 225 245 245 244 260 278 280 267 193 132 143 136 131 128 129 130 130 136 143 145 147 148 147 153 159 161 158 160 166 176 162 148 146 144 149 144 131 127 124 117
277 265 230 206 214 230 244 251 260 259 274 271 229 201 170 154 150 141 137 140 141 142 144 148 150 152 155 160 162 162 161 162 165 182 178 160 152 147 145 133 136 145 138 123
270 263 236 215 218 230 227 231 242 261 266 263 255 224 118 145 143 143 142 140 144 146 150 153 156 160 158 154 156 160 161 159 167 184 176 158 150 149 147 144 143 134 133 144
268 274 252 235 229 242 248 248 246 254 269 277 273 140 107 123 124 129 131 132 135 134 136 144 152 153 152 154 163 166 167 165 172 184 169 157 157 160 161 154 154 155 160 158
304 267 260 233 218 222 236 238 248 265 272 265 257 177 143 127 119 121 125 128 130 127 127 127 135 144 150 154 163 168 167 162 156 157 159 162 163 161 161 157 163 171 161 152
293 262 260 260 272 263 249 251 247 249 259 269 260 197 177 156 136 132 131 135 136 140 141 134 136 141 150 154 157 163 160 150 145 146 156 164 167 162 162 157 155 159 157 163
267 264 270 272 278 275 268 264 257 251 257 265 265 262 211 169 147 138 138 135 137 139 141 142 146 147 152 157 157 155 151 151 154 151 159 168 160 144 139 143 146 139 147 147
260 267 272 271 269 270 269 264 257 254 259 258 262 276 275 136 124 124 128 132 135 145 149 145 148 146 152 156 157 155 156 159 158 159 156 153 146 141 144 145 131 114 99 97
259 269 275 272 267 268 262 254 243 240 245 249 248 249 120 110 128 136 134 131 138 139 148 155 162 158 156 157 158 158 161 157 152 154 146 142 136 134 140 134 120 120 116 101
258 266 269 272 269 253 252 308 244 249 254 259 232 176 155 141 154 130 125 127 127 123 119 135 155 156 158 155 149 149 151 152 156 151 147 138 141 139 138 134 133 144 125 122
247 256 262 260 259 261 255 244 235 238 250 247 223 204 123 118 142 132 100 108 123 140 144 144 147 140 136 139 142 140 139 142 140 138 142 145 146 146 147 149 151 151 141 143
231 238 246 257 260 262 263 172 244 237 239 234 172 144 110 136 191 177 109 113 123 121 131 136 140 131 136 132 136 147 147 143 146 149 154 147 145 148 154 159 159 153 147 160
222 230 238 251 258 263 275 30 1 238 236 93 92 114 156 193 26 93 95 90 123 135 141 134 140 138 154 144 132 146 151 161 158 148 149 143 139 147 154 155 151 150 158 162
245 244 240 243 248 248 75 251 244 355 40 60 67 61 32 42 36 74 88 84 124 149 152 149 147 154 157 146 147 159 162 158 133 129 135 142 145 161 158 149 156 166 164 163
246 259 272 263 259 358 6 1 2 11 358 11 23 40 15 8 355 28 16 286 202 181 169 160 160 163 161 160 162 171 163 145 141 144 153 158 156 161 153 151 160 164 153 165
268 288 277 272 248 279 319 344 349 343 341 343 334 330 318 316 314 307 259 273 257 192 182 167 164 167 178 180 174 168 156 154 160 166 166 162 155 150 145 143 159 169 179 191
302 304 287 277 275 291 300 315 317 323 321 306 299 288 282 273 268 273 267 269 260 250 213 185 180 181 188 185 187 171 159 164 179 185 171 163 159 161 162 142 150 181 199 196
274 274 272 277 282 282 277 292 303 304 298 296 286 266 250 246 253 257 255 254 249 237 222 204 191 186 192 192 194 179 169 177 189 193 174 169 165 158 159 145 91 41 163 180
Height
1498 1501 1502 1498 1496 1496 1497 1500 1503 1502 1500 1504 1507 1508 1508 1509 1512 1513 1515 1517 1519 1521 1523 1525 1527 1529 1530 1531 1532 1533 1534 1535 1536 1537 1538 1538 1538 1539 1539 1540 1540 1540 1541 1541
1498 1500 1495 1493 1493 1494 1496 1502 1503 1501 1499 1502 1506 1506 1504 1506 1509 1511 1513 1515 1517 1520 1522 1524 1526 1528 1530 1531 1532 1533 1534 1535 1536 1537 1538 1538 1539 1540 1540 1540 1541 1541 1542 1542
1497 1494 1492 1493 1494 1496 1497 1501 1501 1502 1500 1500 1505 1509 1505 1504 1506 1509 1511 1513 1515 1518 1520 1523 1525 1527 1529 1530 1532 1533 1534 1535 1536 1537 1538 1539 1539 1540 1541 1541 1542 1542 1542 1543
1492 1491 1491 1493 1495 1495 1500 1494 1496 1500 1505 1507 1504 1518 1506 1502 1504 1507 1510 1512 1514 1516 1519 1521 1524 1526 1528 1530 1531 1533 1534 1535 1536 1537 1538 1538 1539 1540 1541 1542 1542 1543 1543 1544
1492 1490 1492 1494 1494 1494 1495 1493 1495 1498 1501 1505 1501 1509 1508 1499 1504 1505 1507 1510 1513 1515 1517 1520 1522 1525 1527 1529 1531 1532 1533 1535 1536 1537 1538 1539 1540 1541 1541 1542 1543 1544 1544 1544
1489 1488 1489 1491 1490 1491 1493 1495 1495 1495 1501 1514 1501 1506 1512 1502 1501 1502 1504 1508 1511 1514 1516 1518 1521 1524 1526 1528 1530 1531 1533 1534 1535 1536 1537 1538 1539 1540 1541 1542 1543 1544 1544 1545
1491 1488 1487 1489 1492 1492 1494 1504 1515 1516 1518 1512 1492 1500 1507 1496 1496 1499 1502 1506 1509 1511 1514 1517 1520 1522 1525 1527 1529 1531 1532 1533 1535 1536 1537 1538 1539 1540 1541 1542 1543 1544 1544 1545
1496 1496 1486 1487 1490 1494 1493 1499 1516 1522 1518 1506 1494 1502 1501 1493 1496 1499 1501 1505 1508 1510 1513 1516 1519 1521 1524 1526 1528 1530 1531 1533 1534 1535 1536 1538 1539 1540 1540 1541 1542 1543 1544 1545
1492 1492 1483 1484 1486 1490 1495 1496 1494 1502 1501 1506 1500 1499 1497 1493 1496 1498 1501 1505 1508 1510 1513 1515 1518 1520 1523 1525 1527 1528 1530 1532 1533 1534 1536 1537 1538 1539 1540 1541 1542 1543 1544 1545
1486 1492 1484 1483 1486 1487 1489 1491 1496 1503 1512 1516 1506 1502 1502 1497 1497 1498 1501 1504 1507 1510 1512 1515 1517 1519 1521 1523 1525 1527 1529 1530 1532 1533 1534 1535 1536 1538 1539 1540 1541 1542 1543 1544
1485 1491 1489 1485 1487 1489 1489 1490 1492 1496 1497 1510 1517 1511 1488 1492 1493 1497 1500 1503 1506 1508 1511 1513 1516 1518 1520 1522 1524 1526 1527 1529 1530 1531 1532 1534 1535 1536 1538 1539 1540 1541 1542 1543
1486 1488 1492 1486 1481 1482 1484 1486 1490 1502 1502 1497 1505 1509 1487 1489 1492 1495 1499 1502 1505 1507 1510 1512 1514 1516 1519 1521 1522 1524 1526 1527 1528 1529 1531 1532 1533 1535 1536 1538 1539 1540 1541 1542
1490 1492 1498 1496 1492 1486 1485 1483 1484 1489 1494 1498 1505 1507 1490 1491 1493 1496 1499 1501 1504 1506 1509 1511 1513 1515 1517 1519 1521 1522 1524 1525 1526 1527 1529 1530 1532 1533 1535 1536 1537 1539 1540 1541
1492 1492 1496 1502 1494 1487 1487 1485 1483 1489 1498 1498 1495 1497 1492 1491 1493 1496 1498 1501 1503 1505 1508 1510 1512 1514 1516 1517 1519 1521 1522 1523 1524 1526 1527 1528 1530 1532 1533 1535 1536 1537 1538 1540
1491 1492 1488 1485 1483 1483 1484 1484 1483 1486 1488 1494 1492 1491 1489 1490 1492 1495 1497 1500 1502 1504 1507 1509 1511 1513 1515 1516 1518 1519 1520 1522 1523 1524 1525 1526 1528 1530 1531 1533 1535 1536 1537 1538
1490 1491 1488 1487 1483 1482 1483 1482 1482 1483 1484 1486 1488 1491 1487 1488 1491 1494 1497 1499 1501 1503 1505 1508 1510 1511 1513 1515 1516 1517 1518 1520 1521 1522 1524 1525 1526 1528 1529 1531 1533 1534 1535 1536
1491 1491 1493 1492 1484 1483 1488 1480 1480 1480 1480 1483 1489 1488 1486 1489 1491 1494 1496 1498 1500 1502 1504 1506 1508 1510 1511 1513 1514 1515 1516 1518 1519 1521 1522 1523 1525 1526 1527 1529 1530 1532 1533 1534
1492 1492 1493 1493 1491 1499 1484 1473 1474 1477 1479 1480 1482 1484 1486 1489 1491 1493 1495 1497 1499 1501 1503 1504 1506 1508 1509 1511 1512 1514 1515 1516 1517 1519 1520 1521 1522 1524 1525 1527 1528 1529 1531 1532
1487 1491 1494 1493 1495 1488 1480 1475 1475 1479 1482 1480 1482 1483 1485 1487 1489 1492 1494 1496 1498 1500 1501 1503 1504 1506 1507 1509 1510 1512 1513 1514 1515 1516 1518 1519 1520 1522 1523 1524 1526 1527 1528 1529
1484 1486 1492 1491 1495 1495 1483 1474 1474 1478 1484 1480 1481 1483 1485 1487 1491 1493 1493 1495 1496 1498 1500 1501 1503 1504 1505 1507 1509 1510 1511 1512 1513 1514 1515 1517 1518 1519 1520 1522 1523 1524 1526 1527
1487 1487 1490 1491 1492 1486 1477 1475 1476 1487 1485 1480 1481 1484 1486 1488 1490 1492 1492 1494 1495 1496 1498 1499 1501 1502 1503 1505 1506 1508 1509 1510 1511 1512 1513 1514 1516 1517 1518 1519 1521 1522 1523 1524
1486 1488 1487 1487 1492 1490 1477 1477 1480 1482 1480 1480 1482 1484 1486 1488 1489 1490 1491 1492 1493 1495 1496 1497 1499 1500 1502 1503 1504 1505 1506 1508 1509 1510 1511 1512 1513 1515 1516 1517 1518 1520 1521 1522
1482 1483 1483 1484 1486 1480 1479 1480 1480 1481 1481 1482 1483 1485 1486 1487 1488 1489 1490 1491 1492 1493 1494 1495 1497 1498 1499 1501 1502 1503 1504 1505 1506 1507 1508 1509 1511 1512 1514 1515 1515 1517 1518 1519
1480 1480 1480 1480 1480 1480 1481 1481 1481 1481 1482 1483 1483 1484 1485 1486 1487 1488 1489 1489 1490 1491 1492 1493 1494 1495 1497 1498 1499 1501 1502 1502 1503 1504 1505 1507 1508 1509 1511 1512 1513 1514 1515 1516
1485 1482 1481 1480 1480 1480 1481 1481 1481 1481 1481 1481 1482 1482 1483 1484 1485 1486 1487 1487 1488 1488 1489 1490 1491 1492 1494 1495 1497 1498 1499 1500 1501 1502 1503 1504 1505 1506 1507 1509 1510 1511 1512 1513
1485 1485 1485 1483 1481 1481 1480 1480 1480 1480 1480 1480 1480 1480 1481 1482 1482 1483 1484 1484 1485 1485 1486 1487 1488 1489 1491 1492 1494 1495 1496 1497 1498 1499 1500 1500 1501 1503 1504 1505 1506 1507 1509 1510